Location: Zagreb
(45.8000°N, 16.0000°E)
Time: 17:17:51
(UTC+01:00)

N. Korean satellite - Pass Details

Date: 04 December 2021
Orbit: 447 x 491 km, 97.3° (Epoch: 23 January)

Event Time Altitude Azimuth Distance (km) Brightness Sun altitude
Rises 05:49:57 0° 3° (N) 2,469 10.0 -15.1°
Reaches altitude 10° 05:52:07 10° 353° (N) 1,588 8.9 -14.8°
Maximum altitude 05:55:10 32° 289° (WNW) 797 7.1 -14.3°
Drops below altitude 10° 05:58:12 10° 225° (SW) 1,571 8.9 -13.8°
Sets 06:00:20 0° 215° (SW) 2,438 10.0 -13.4°
